INTELSAT 20 (IS-20) (38740 NORAD) Tracking and Keplerian Element Data

This shows tracking and keplerian element data for the satellite.

Feedback or suggestion? Click here.




ElementValue
Catalog38740
NameINTELSAT 20 (IS-20)
Epoch Orbit4583
Epoch Day34.84008707
Epoch Year2025
RAAN103.3206
Inclination0.0239
Eccentricity0.0002217
Argument of Perigee76.2446
Mean Anonmoly325.5865
Mean Motion1.00271067
Decay Rate-2E-07
L11 38740U 12043A 25034.84008707 -.00000020 00000+0 00000+0 0 9991
L22 38740 0.0239 103.3206 0002217 76.2446 325.5865 1.00271067 45832



Live tracking and technical data element details for INTELSAT 20 (IS-20) (NORAD 38740). INTELSAT 20 (IS-20) can be tracked NOW for your location showing map with azimuth and elevation plus other details from your city location.







IsCatalogInMostPopularTable: catalog: 38740, numindb: 760
Update: records affected: 1



GetName: 38740 INTELSAT 20 (IS-20)

Hit Count: updated at: Sat, 17 May 2025 08:22:13 GMT